Погода Колпашево

Погода Колпашево : погода сейчас, прогноз погоды и архив. Всё, что Вы хотите узнать о погоде Колпашево!

Хотите узнать прогноз погоды Колпашево? Тогда Вам сюда: Погода Колпашево

Поиск расширенной информации на нашем сайте:

Другие новости

Новости СМИ2

Главная страница сайта

Новости сайта

02.10.2013

Напоминаем, что на нашем новом сайте вы можете получить высокодетализированные прогнозы погоды по пунктам России, СНГ и мира (включающие важные для авиации метеовеличины, такие как направление и скорость ветра, видимость, явления погоды, количество и форма облачности, нижняя и верхняя граница облачности), а также ознакомиться с разнообразными материалами по авиационной метеорологии и подборкой полезных ссылок на эту тему.

Сайт Метеоцентр.Азия посвящён разработке технологий оптимизации авиаметеорологического обслуживания, включая проектирование и перспективное создание нескольких автоматизированных авиаметеорологических систем:
- система выпуска высокодетальных прогностических карт явлений погоды для нижнего воздушного пространства по России и ближнему зарубежью;
- система верификации прогнозов TAF (выпускаемых синоптиками официальных АМСГ РФ и ближнего зарубежья) и AUTOTAF (выпускаемых сайтом Метеоцентр.Азия) - выявление ошибок, онлайн-сопоставление с фактической погодой METAR, автоматическое внесение коррективов в прогнозы при резком отклонении фактической погоды от прогноза, подсчёт оправдываемости прогнозов по элементам и в целом;
- система обработки, анализа и отображения авиаметеорологической информации для применения провайдерами метеорологической информации.

Рекомендуем: Видео и фото на свадьбу bachinskiy.kiev.ua.

Погода Колпашево - сегодня

Время (UTC), дата Ветер
(°,м/с) 
Видим.   Явления Облачность Т
(°С)
Тd
(°С)
f(%) Тe
(°С)
Pmin
(гПа)
dP
(гПа)
Po
(мм)
O2
(г/м3)
Тmin Tmax R s Состояние
почвы
18 24.03.17 110 (В) 20000 м    ясно 
-5.7 -12.1 61 -5  1021  -2.8  758  313           
21 24.03.17 090 (В) 20000 м    ясно 
-5.5 -14.1 51 -7  1017.9  -3.2  756  312           
00 25.03.17 090 (В) 20000 м    8/0 верхняя 
[Ci fib]
-5 -13.6 51 -6  1014.7  -3.1  754  311  -6.9      72  равномерный
мокрый или
старый снег
100% 
03 25.03.17 110 (В) 20000 м    10/3 600 м кучево-дожд., средняя 
[Cb cap|Ac trans]
-1.8 -10.5 51 -3  1011.6  -2.9  752  306           
06 25.03.17 140 (ЮВ) 20000 м  {ливн. осадки}  10/6 300 м кучево-дожд., средняя 
[Cb cap|Ac trans]
+1 -2.8 76 -1  1009.6  -2  750  301           
09 25.03.17 170 (Ю) 20000 м  {ливн. осадки}  10/8 300 м кучево-дожд., средняя 
[Cb cap|Ac trans]
+2.3 -1.2 78 1009.2  -0.3  750  300           
12 25.03.17 180 (Ю) 10 км  слаб. ливневой дождь  9/9 300 м кучево-дожд. 
[Cb cap]
+1.4 +0.5 94 +1  1009.8  0.6  750  301    +2.8  0.3     
15 25.03.17 250 (З) 20000 м  {ливн. осадки}  10/10 420 м кучево-дожд. 
[Cb cap]
+0.6 -0.8 90 1011.8  1.9  752  302           
18 25.03.17 240 (ЮЗ) 20000 м  {ливн. осадки}  ясно 
-1 -2.8 88 -2  1014.2  2.4  753  305           
21 25.03.17 250 (З) 20000 м    ясно 
-2.3 -4.7 84 -3  1017.2  2.9  756  308           
00 26.03.17 190 (Ю) 20000 м    3/0 верхняя 
[Ci fib]
-4.4 -6.2 87 -4  1020.3  2.9  758  311  -4.4    0.5  71  равномерный
мокрый или
старый снег
100% 
03 26.03.17 180 (Ю) 20000 м    8/0 верхняя 
[Ci fib]
-1.1 -5.8 70 -2  1022.5  2.4  760  308  -5.5         
06 26.03.17 170 (Ю) 20000 м    10/0 верхняя 
[Ci fib]
+4.1 -4.6 53 +3  1022.1  -0.3  759  302           
09 26.03.17 180 (Ю) 20000 м    10/3 600 м верхняя 
[Cu hum|Ci fib]
+6 -6.1 41 +5  1020.7  -1.3  758  300           
12 26.03.17 170 (Ю) 20000 м    10/0 верхняя 
[Ci sp]
+5.1 -6 44 +4  1019  -1.7  757  300    +6.4       
15 26.03.17 160 (Ю) 20000 м    ясно 
+1.6 -5.5 59 +2  1017.7  -1.4  756  303           
18 26.03.17 тихо ()   20000 м    ясно 
-3.9 -6.3 83 -4  1017.5  -0.4  756  310           
21 26.03.17 110 (В) 20000 м    ясно 
-5.8 -6.6 94 -5  1016.5  -1  755  312           
00 27.03.17 120 (ЮВ) 20000 м    10/0 верхняя 
[Ci fib]
-6 -7 93 -6  1015.3  -1.2  754  311  -6.4      69  равномерный
мокрый или
старый снег
100% 
03 27.03.17 100 (В) 20000 м    10/0 средняя 
[As op]
-3.2 -6.4 79 -4  1014.4  -0.8  754  308           
06 27.03.17 130 (ЮВ) 20000 м    10/0 средняя 
[As trans]
+2.7 -4.9 57 +1  1012.6  -1.6  752  301           
09 27.03.17 130 (ЮВ) 20000 м    10/0 средняя 
[As op]
+3.9 -3.6 58 +3  1011.6  -1  752  299           
12 27.03.17 140 (ЮВ) 20000 м    10/0 средняя 
[Ac As]
+3.3 -2.2 67 +2  1012.1  0.5  752  300    +4.3       
15 27.03.17 160 (Ю) 20000 м    ясно 
+1 -0.6 89 1013.1  753  302           
18 27.03.17 180 (Ю) 20000 м    10/10 800 м 
[Sc]
+0.6 -2.6 79 -1  1014.5  1.3  754  303           
Время (UTC), дата Ветер
(°,м/с) 
Видим.   Явления Облачность Т
(°С)
Тd
(°С)
f(%) Тe
(°С)
Pmin
(гПа)
dP
(гПа)
Po
(мм)
O2
(г/м3)
Тmin Tmax R s Состояние
почвы

Для получения пояснительной информации подведите курсор к названию столбца.

ПОГОДА Колпашево - архив

Всё, что Вы хотите узнать о погоде Колпашево - удобно и подробно!

Выберите нужную дату (начиная с 1 января 2015* года) и нажмите кнопку "Найти".
Будут отображены архивные сводки погоды по пункту Колпашево, начиная с указанной даты.


Отображать данные в формате CSV (для использования в таблицах Excel)


Внимание! Наш архив погоды предназначен исключительно для личного некоммерческого использования в познавательных целях. Если Вам необходимы официальные справки о состоянии погоды (для производственных, юридических, коммерческих и т.п. целей), обращайтесь в органы Росгидромета.

*Примечание: данная дата относится к архиву по метеостанциям СССР (Россия, СНГ, Балтия).
Архив по метеостанциям Зарубежной Европы и Азии (кроме Китая) хранится 10 дней, по другим регионам земного шара (Китай, Африка, Америка, Австралия, Океания) - 1 день.

Колпашево - район местоположения метеостанции


Название, широта, долгота, высота метеостанции:
Колпашево 58.3°ш. 82.9°д. 75 м над ур. моря [Российская Федерация]

Дополнительная информация

В oтличие oт бoльшинства пoгoдных сайтoв мы публикуем пoдрoбную метеoинфoрмацию в детальнoм прoфессиoнальнoм фoрмате.

Характеристики температуры и влажнoсти вoздуха измеряются на высoте 2 м в тени вдали oт зданий и деревьев.
Скoрoсть ветра измеряется на высoте 10 м (на урoвне рoста челoвека скoрoсть ветра ниже в 1.5-2 раза). Если метеoстанция нахoдится в гoрoде или в лесу, тo скoрoсть ветра занижена на 2-4 м/с пo сравнению с oткрытым местoм. Скoрoсть ветра над акватoриями крупных рек и oзёр, а также на вершинах хoлмoв на 2-5 м/с выше, чем в oбычных услoвиях.
Атмoсфернoе давление в разных тoчках местнoсти мoжет значительнo oтличаться oт давления на метеoстанции, в зависимoсти oт услoвий рельефа (при пoдъёме на 10 м давление пoнижается примернo на 1 мм рт.ст.).